TimeCST,TemperatureF,Dew PointF,Humidity,Sea Level PressureIn,VisibilityMPH,Wind Direction,Wind SpeedMPH,Gust SpeedMPH,PrecipitationIn,Events,Conditions,WindDirDegrees,DateUTC
12:00 AM,64.4,62.6,94,30.30,6.2,North,13.8,-,N/A,,Mostly Cloudy,360,2013-10-30 06:00:00
1:00 AM,64.4,62.6,94,30.27,6.2,North,9.2,-,N/A,,Mostly Cloudy,360,2013-10-30 07:00:00
2:00 AM,64.4,62.6,94,30.27,6.2,NNE,6.9,-,N/A,,Mostly Cloudy,20,2013-10-30 08:00:00
3:00 AM,64.4,62.6,94,30.27,6.2,North,9.2,-,N/A,,Mostly Cloudy,360,2013-10-30 09:00:00
3:40 AM,-9999,-9999,N/A,-9999,6.2,North,6.9,-,N/A,,Light Drizzle,360,2013-10-30 09:40:00
4:00 AM,64.4,62.6,94,30.24,5.0,North,9.2,-,N/A,,Light Drizzle,360,2013-10-30 10:00:00
5:00 AM,64.4,62.6,94,30.27,6.2,North,9.2,-,N/A,,Mostly Cloudy,360,2013-10-30 11:00:00
5:40 AM,-9999,-9999,N/A,-9999,5.0,North,11.5,-,N/A,,Light Drizzle,360,2013-10-30 11:40:00
6:00 AM,64,62,90,29.95,25,North,11.5,,,Rain,Light Drizzle,0,2013-10-30 12:00:00
6:00 AM,64.4,62.6,94,30.27,5.0,North,11.5,-,N/A,,Light Drizzle,360,2013-10-30 12:00:00
7:00 AM,64.4,62.6,94,30.30,6.2,North,9.2,-,N/A,,Mostly Cloudy,360,2013-10-30 13:00:00
8:00 AM,64.4,62.6,94,30.33,6.2,NNE,9.2,-,N/A,,Mostly Cloudy,20,2013-10-30 14:00:00
8:25 AM,-9999,-9999,N/A,-9999,6.2,North,9.2,-,N/A,,Scattered Clouds,360,2013-10-30 14:25:00
9:00 AM,68.0,64.4,88,30.33,6.2,NNE,9.2,-,N/A,,Scattered Clouds,20,2013-10-30 15:00:00
10:00 AM,69.8,62.6,78,30.33,6.2,North,13.8,-,N/A,,Mostly Cloudy,360,2013-10-30 16:00:00
11:00 AM,71.6,62.6,73,30.33,6.2,NNE,11.5,-,N/A,,Mostly Cloudy,20,2013-10-30 17:00:00
12:00 PM,73.4,62.6,69,30.30,6.2,NNE,9.2,-,N/A,,Mostly Cloudy,30,2013-10-30 18:00:00
1:00 PM,75.2,64.4,69,30.27,6.2,North,11.5,-,N/A,,Scattered Clouds,360,2013-10-30 19:00:00
2:00 PM,73.4,62.6,69,30.24,6.2,North,13.8,-,N/A,,Mostly Cloudy,360,2013-10-30 20:00:00
2:05 PM,-9999,-9999,N/A,-9999,-9999.0,North,-9999.0,-,N/A,,Unknown,0,2013-10-30 20:05:00
3:00 PM,73.4,62.6,69,30.21,6.2,North,11.5,-,N/A,,Mostly Cloudy,360,2013-10-30 21:00:00
4:00 PM,71.6,62.6,73,30.21,6.2,North,11.5,-,N/A,,Mostly Cloudy,360,2013-10-30 22:00:00
5:00 PM,69.8,60.8,73,30.24,6.2,North,11.5,-,N/A,,Mostly Cloudy,360,2013-10-30 23:00:00
6:00 PM,68.0,60.8,78,30.24,6.2,North,13.8,-,N/A,,Mostly Cloudy,360,2013-10-31 00:00:00
7:00 PM,68.0,60.8,78,30.27,6.2,North,13.8,-,N/A,,Scattered Clouds,360,2013-10-31 01:00:00
8:00 PM,66.2,60.8,83,30.30,6.2,North,9.2,-,N/A,,Scattered Clouds,360,2013-10-31 02:00:00
9:00 PM,66.2,60.8,83,30.33,6.2,North,6.9,-,N/A,,Scattered Clouds,360,2013-10-31 03:00:00
10:00 PM,66.2,62.6,88,30.30,6.2,North,11.5,-,N/A,,Mostly Cloudy,360,2013-10-31 04:00:00
11:00 PM,64.4,60.8,88,30.30,6.2,North,6.9,-,N/A,,Mostly Cloudy,360,2013-10-31 05:00:00